User: anonymous   Login
Location: Asheville, NC
(35.6000°N, 82.5500°W)
Time: 04:19:41
(UTC-05:00)
Language:

Oscar 11 - Orbit

View from above orbital plane
View from above orbital plane
View from above satellite
View from above satellite

Ground track
Ground track

The orbit data is extracted from the following two-line orbital elements,

1 14781U 84021B   18018.54833019  .00000080  00000-0  16103-4 0  9990
2 14781 097.6697 060.9812 0007839 204.8244 155.2594 14.82974249801262
Epoch (UTC): 18 January 2018 13:09:35
Eccentricity: 0.0007839
inclination: 97.6697°
perigee height: 614 km
apogee height: 625 km
right ascension of ascending node: 60.9812°
argument of perigee: 204.8244°
revolutions per day: 14.82974249
mean anomaly at epoch: 155.2594°
orbit number at epoch: 80126

The dashed part of the orbit path shows where the satellite is in the earth's shadow,  

DLR